Weather reports worldwide

Advertisment
Frankfurt/Main, Germany (10637): temperature & dewpoint: 16.09.2018 23:00:00 - 22.09.2018 23:00:00 (CEST)Frankfurt/Main, Germany (10637): temperature 5cm & temperature -5cm: 16.09.2018 23:00:00 - 22.09.2018 23:00:00 (CEST)Frankfurt/Main, Germany (10637): temperature -20cm & temperature -100cm: 16.09.2018 23:00:00 - 22.09.2018 23:00:00 (CEST)Frankfurt/Main, Germany (10637): wind speed & gusts: 16.09.2018 23:00:00 - 22.09.2018 23:00:00 (CEST)Frankfurt/Main, Germany (10637): wind direction: 16.09.2018 23:00:00 - 22.09.2018 23:00:00 (CEST)Frankfurt/Main, Germany (10637): reduced air pressure: 16.09.2018 23:00:00 - 22.09.2018 23:00:00 (CEST)Frankfurt/Main, Germany (10637): visibility: 16.09.2018 23:00:00 - 22.09.2018 23:00:00 (CEST)Frankfurt/Main, Germany (10637): sunshine duration: 16.09.2018 23:00:00 - 22.09.2018 23:00:00 (CEST)Frankfurt/Main, Germany (10637): precipitation: 16.09.2018 23:00:00 - 22.09.2018 23:00:00 (CEST)
Date & Time tt [°C] td [°C] tt 5cm [°C] tt -5cm [°C] tt -20cm [°C] tt -100cm [°C] ff [km/h] ff [kn] fx [km/h] fx [kn] dd ppp [hPa] vv [km] sd [min] rr [mm]
22.09.2018 23:00:00 11,4 9,8 11,0 15,9 19,0 21,2 5 3 11 6 SSE 1020,2 40 0 0,1
22.09.2018 22:00:00 11,7 10,1 11,4 16,2 19,2 21,2 7 4 15 8 SW 1020,4 40 0 -
22.09.2018 21:00:00 12,3 9,2 11,3 16,6 19,5 21,3 12 6 28 15 SW 1020,5 18 0 0,3
22.09.2018 20:00:00 13,2 8,5 11,6 17,4 19,8 21,3 13 7 25 13 WSW 1020,6 10 0 0,2
22.09.2018 19:00:00 14,6 7,5 13,4 18,4 20,0 21,3 16 8 41 22 WSW 1020,2 40 0 0,0
22.09.2018 18:00:00 16,6 4,2 15,1 20,3 20,0 21,4 18 10 42 23 SW 1020,0 10 0 0,0
22.09.2018 17:00:00 18,3 4,4 19,1 21,5 19,9 21,4 25 13 41 22 WSW 1020,0 50 0 0,0
22.09.2018 16:00:00 18,0 4,9 19,1 22,4 19,6 21,4 25 13 40 21 SW 1020,6 50 1 0,0
22.09.2018 15:00:00 17,7 5,4 19,8 23,6 19,0 21,4 24 13 48 26 SW 1020,9 50 20 0,0
22.09.2018 14:00:00 18,0 6,2 22,1 23,1 18,3 21,5 26 14 48 26 WSW 1021,5 50 36 0,0
22.09.2018 13:00:00 16,6 6,6 19,4 21,8 17,7 21,5 21 11 40 21 SSW 1022,2 10 51 0,0
22.09.2018 12:00:00 15,4 6,5 18,6 18,6 17,2 21,5 18 10 34 18 SW 1022,9 10 58 0,0
22.09.2018 11:00:00 13,6 6,3 14,6 15,9 16,9 21,5 18 10 31 17 WSW 1023,6 10 39 0,0
22.09.2018 10:00:00 12,5 6,3 12,9 13,9 16,9 21,6 15 8 24 13 SW 1023,3 10 0 0,0
22.09.2018 09:00:00 10,9 5,9 10,7 12,5 17,0 21,6 8 4 21 11 S 1023,5 50 0 0,0
22.09.2018 08:00:00 9,5 5,3 8,4 12,0 17,1 21,6 15 8 28 15 SW 1022,9 10 0 0,0
22.09.2018 07:00:00 9,5 4,8 8,3 12,0 17,4 21,6 15 8 27 15 SSW 1022,1 10 0 0,0
22.09.2018 06:00:00 10,0 4,5 8,4 12,0 17,6 21,6 19 10 29 16 SSW 1022,0 55 0 0,0
22.09.2018 05:00:00 10,0 4,4 8,3 12,0 17,9 21,6 23 12 29 15 SSW 1021,7 60 0 0,0
22.09.2018 04:00:00 10,5 4,2 8,6 12,4 18,2 21,6 16 9 24 13 S 1021,2 60 0 0,0
22.09.2018 03:00:00 11,8 4,0 9,6 12,7 18,5 21,6 10 6 21 11 S 1020,6 60 0 0,0
22.09.2018 02:00:00 11,4 4,4 9,2 13,1 18,9 21,7 18 10 27 14 SSW 1020,2 10 0 0,0
22.09.2018 01:00:00 11,4 4,7 9,2 13,7 19,2 21,7 19 11 34 18 SW 1019,7 65 0 0,0
22.09.2018 00:00:00 13,4 4,2 11,3 14,4 19,6 21,7 22 12 37 20 SW 1019,0 65 0 0,0
21.09.2018 23:00:00 13,8 5,1 12,1 14,8 20,0 21,7 21 11 37 20 SW 1018,4 10 0 0,0
21.09.2018 22:00:00 13,1 5,7 10,7 15,4 20,3 21,7 15 8 29 15 SSW 1017,6 10 0 0,0
21.09.2018 21:00:00 15,3 4,3 13,7 16,0 20,8 21,7 20 11 33 18 W 1016,4 70 0 0,0
21.09.2018 20:00:00 15,2 4,6 14,0 16,9 21,1 21,7 21 11 40 22 W 1015,4 10 0 0,0
21.09.2018 19:00:00 15,5 7,9 14,5 18,4 21,4 21,7 23 13 39 21 W 1014,2 60 8 0,0
21.09.2018 18:00:00 15,5 12,0 16,4 19,3 21,7 21,7 18 10 43 23 SW 1012,7 10 15 0,1
21.09.2018 17:00:00 14,3 11,9 13,8 19,4 21,9 21,7 22 12 31 17 SW 1011,9 35 0 0,8
21.09.2018 16:00:00 14,3 12,6 14,1 20,5 22,1 21,7 24 13 66 36 W 1011,0 10 0 1,8
21.09.2018 15:00:00 21,8 12,6 20,8 22,5 22,1 21,7 28 15 70 38 WSW 1008,5 10 0 0,0
21.09.2018 14:00:00 23,8 10,2 23,6 22,8 21,9 21,7 28 15 51 27 SW 1008,2 60 0 0,0
21.09.2018 13:00:00 23,3 11,4 23,4 22,5 21,8 21,7 24 13 46 25 SSW 1008,5 10 0 0,0
21.09.2018 12:00:00 22,9 13,4 23,1 22,1 21,6 21,7 21 11 41 22 SSW 1009,1 10 0 0,0
21.09.2018 11:00:00 21,9 13,2 22,4 21,5 21,5 21,7 21 11 41 22 SSW 1009,2 10 1 0,0
21.09.2018 10:00:00 19,6 13,5 19,8 20,4 21,5 21,7 19 10 34 18 SSW 1009,2 35 0 0,0
21.09.2018 09:00:00 18,1 12,7 18,3 19,6 21,5 21,7 9 5 22 12 SW 1009,2 35 51 0,0
21.09.2018 08:00:00 14,1 11,9 13,9 18,5 21,7 21,7 4 2 13 7 - 1009,6 10 4 0,0
21.09.2018 07:00:00 13,4 11,7 11,9 18,6 22,0 21,7 2 1 4 2 ENE 1010,1 35 0 0,0
21.09.2018 06:00:00 13,5 11,6 11,9 18,8 22,2 21,6 3 1 9 5 E 1010,7 40 0 0,0
21.09.2018 05:00:00 13,9 12,1 12,0 19,3 22,5 21,6 4 2 9 5 WSW 1011,3 10 0 0,0
21.09.2018 04:00:00 14,6 12,3 11,9 19,7 22,8 21,6 2 1 5 3 - 1011,7 10 0 0,0
21.09.2018 03:00:00 15,5 12,4 12,8 20,2 23,1 21,6 2 1 5 3 - 1012,0 10 0 0,0
21.09.2018 02:00:00 16,1 12,3 13,9 20,6 23,4 21,6 4 2 5 3 - 1012,6 10 0 0,0
21.09.2018 01:00:00 16,5 12,5 13,6 21,1 23,8 21,6 2 1 4 2 - 1013,0 10 0 0,0
21.09.2018 00:00:00 17,9 12,6 14,4 21,7 24,1 21,6 2 1 5 3 - 1013,5 10 0 0,0
20.09.2018 23:00:00 19,1 12,7 15,9 22,4 24,5 21,6 4 2 21 11 - 1013,9 10 0 0,0
20.09.2018 22:00:00 20,7 12,7 16,3 23,3 24,9 21,6 9 5 25 14 SSE 1014,2 50 0 0,0
20.09.2018 21:00:00 21,4 12,4 17,1 24,5 25,3 21,6 9 5 18 10 SSW 1014,6 10 0 0,0
20.09.2018 20:00:00 24,0 12,1 20,0 26,2 25,5 21,6 11 6 26 14 SSW 1014,7 10 0 0,0
20.09.2018 19:00:00 26,9 11,6 25,8 28,3 25,6 21,6 13 7 33 18 SSW 1014,8 10 48 0,0
20.09.2018 18:00:00 28,3 11,2 29,3 30,0 25,5 21,6 16 9 38 20 SSW 1015,2 10 54 0,0
20.09.2018 17:00:00 28,3 11,0 31,0 31,0 25,1 21,6 21 11 44 24 WSW 1015,8 10 60 0,0
20.09.2018 16:00:00 28,5 10,1 32,1 31,6 24,6 21,6 24 13 40 21 WSW 1016,3 45 60 0,0
20.09.2018 15:00:00 28,4 9,2 32,5 31,2 24,0 21,6 21 11 40 22 SSW 1016,9 10 60 0,0
20.09.2018 14:00:00 27,7 10,6 31,5 30,5 23,3 21,6 22 12 53 28 SW 1017,6 10 60 0,0
20.09.2018 13:00:00 26,4 12,1 30,7 28,7 22,6 21,6 15 8 35 19 SW 1018,4 40 60 0,0
20.09.2018 12:00:00 25,3 12,7 29,0 26,5 22,0 21,5 15 8 31 17 SW 1019,1 10 60 0,0
20.09.2018 11:00:00 23,6 13,3 27,0 23,9 21,7 21,5 10 6 24 13 WSW 1019,6 40 60 0,0
20.09.2018 10:00:00 20,4 13,5 22,2 21,1 21,6 21,5 8 4 19 10 SSW 1019,8 10 60 0,0
20.09.2018 09:00:00 16,9 13,3 17,0 19,2 21,7 21,5 11 6 21 11 SSW 1019,8 40 18 0,0
20.09.2018 08:00:00 15,0 12,9 13,2 19,1 21,9 21,5 5 3 23 12 S 1019,7 10 0 0,0
20.09.2018 07:00:00 15,2 12,7 13,4 19,4 22,1 21,5 4 2 8 4 SSE 1019,6 45 0 0,0
20.09.2018 06:00:00 16,5 13,5 14,6 19,5 22,4 21,5 4 2 8 4 S 1019,4 50 0 0,0
20.09.2018 05:00:00 15,3 12,5 13,3 19,7 22,6 21,5 6 3 9 5 S 1019,2 50 0 0,0
20.09.2018 04:00:00 15,2 12,2 13,2 20,1 22,9 21,5 5 3 4 2 SW 1019,3 10 0 0,0
20.09.2018 03:00:00 15,6 12,6 13,6 20,5 23,2 21,4 4 2 4 2 - 1019,2 10 0 0,0
20.09.2018 02:00:00 16,4 12,7 13,9 21,0 23,5 21,4 2 1 8 4 - 1019,4 10 0 0,0
20.09.2018 01:00:00 17,1 12,7 14,7 21,6 23,9 21,4 4 2 5 3 SSE 1019,3 50 0 0,0
20.09.2018 00:00:00 18,8 13,1 16,5 22,3 24,2 21,4 8 4 8 4 SW 1019,3 10 0 0,0
19.09.2018 23:00:00 19,9 13,2 16,7 23,0 24,6 21,4 8 4 9 5 S 1018,7 10 0 0,0
19.09.2018 22:00:00 21,1 13,0 17,9 24,0 24,9 21,4 8 4 20 11 SW 1018,5 10 0 0,0
19.09.2018 21:00:00 23,3 12,8 19,3 25,1 25,3 21,4 11 6 24 13 - 1018,1 10 0 0,0
19.09.2018 20:00:00 25,5 12,7 21,8 26,8 25,5 21,4 9 5 29 15 S 1017,5 10 7 0,0
19.09.2018 19:00:00 28,4 12,0 27,7 28,6 25,5 21,4 20 11 36 20 SSW 1017,2 50 45 0,0
19.09.2018 18:00:00 29,2 11,8 29,2 30,4 25,4 21,4 22 12 44 24 SW 1017,1 50 51 0,0
19.09.2018 17:00:00 29,7 12,1 32,0 31,3 25,0 21,4 22 12 51 28 S 1017,2 10 58 0,0
19.09.2018 16:00:00 29,5 12,5 33,1 31,6 24,4 21,4 21 11 42 23 SSW 1017,6 10 59 0,0
19.09.2018 15:00:00 29,0 12,7 33,3 31,1 23,8 21,4 15 8 36 20 SSW 1017,8 10 60 0,0
19.09.2018 14:00:00 28,3 12,9 32,6 30,4 23,1 21,4 16 9 34 18 SSW 1018,7 10 60 0,0
19.09.2018 13:00:00 27,3 13,1 31,6 28,7 22,4 21,4 11 6 27 14 - 1019,2 10 60 0,0
19.09.2018 12:00:00 25,4 13,1 29,2 26,4 21,9 21,4 15 8 26 14 S 1019,6 10 60 0,0
19.09.2018 11:00:00 23,3 13,3 26,4 23,9 21,5 21,4 11 6 21 11 S 1019,7 10 60 0,0
19.09.2018 10:00:00 21,4 13,2 23,6 21,6 21,4 21,4 11 6 21 11 SW 1019,6 40 60 0,0
19.09.2018 09:00:00 18,9 13,1 20,0 19,7 21,5 21,4 12 6 26 14 SSW 1019,4 40 60 0,0
19.09.2018 08:00:00 16,3 13,4 15,4 19,0 21,7 21,3 8 4 29 16 SSW 1019,3 10 10 0,0
19.09.2018 07:00:00 16,8 13,7 14,8 19,3 21,9 21,3 8 5 13 7 S 1018,7 30 0 0,0
19.09.2018 06:00:00 16,1 13,6 14,0 19,7 22,1 21,3 6 4 8 4 WSW 1018,4 30 0 0,0
19.09.2018 05:00:00 16,8 13,4 14,7 19,9 22,3 21,3 4 2 13 7 - 1018,2 10 0 0,0
19.09.2018 04:00:00 16,7 13,6 14,6 20,3 22,5 21,3 7 4 13 7 SW 1017,9 30 0 0,0
19.09.2018 03:00:00 17,4 13,9 16,4 20,5 22,8 21,3 4 2 8 4 SSW 1017,5 30 0 0,0
19.09.2018 02:00:00 17,0 14,0 14,8 20,8 23,1 21,3 5 3 5 3 SW 1017,1 10 0 0,0
19.09.2018 01:00:00 18,0 14,0 14,4 21,5 23,5 21,3 5 3 13 7 SW 1016,9 10 0 0,0
19.09.2018 00:00:00 19,6 14,2 16,1 22,3 23,8 21,3 8 4 13 7 SSW 1016,7 10 0 0,0
18.09.2018 23:00:00 20,5 14,4 17,5 23,1 24,1 21,3 8 4 15 8 SW 1015,8 10 0 0,0
18.09.2018 22:00:00 22,9 14,3 19,8 24,1 24,4 21,3 9 5 21 11 SSW 1015,5 10 0 0,0
18.09.2018 21:00:00 25,6 14,3 22,6 25,4 24,7 21,3 11 6 29 15 SW 1014,9 10 0 0,0
18.09.2018 20:00:00 27,4 13,7 25,3 26,9 24,8 21,3 15 8 28 15 SW 1014,0 10 4 0,0
18.09.2018 19:00:00 29,6 13,0 29,0 28,7 24,8 21,3 18 10 38 20 SW 1013,4 10 58 0,0
18.09.2018 18:00:00 30,4 12,5 31,1 30,3 24,5 21,3 22 12 31 17 SW 1013,3 10 54 0,0
18.09.2018 17:00:00 31,1 11,8 34,0 31,2 24,0 21,3 18 10 31 17 SSW 1013,3 10 60 0,0
18.09.2018 16:00:00 30,3 12,3 34,4 31,3 23,4 21,3 16 9 35 19 SW 1013,7 50 60 0,0
18.09.2018 15:00:00 29,3 12,2 33,5 30,5 22,6 21,3 18 10 43 23 SSW 1014,5 50 60 0,0
18.09.2018 14:00:00 28,4 12,0 32,2 29,4 21,8 21,3 19 10 31 17 SSW 1014,9 50 60 0,0
18.09.2018 13:00:00 26,3 11,8 30,6 27,5 21,0 21,3 14 7 27 14 S 1015,5 50 60 0,0
18.09.2018 12:00:00 23,9 10,6 28,1 24,8 20,4 21,3 11 6 27 15 S 1016,2 10 60 0,0
18.09.2018 11:00:00 21,0 9,6 24,6 22,1 20,0 21,3 10 6 23 12 SSW 1016,5 50 60 0,0
18.09.2018 10:00:00 18,8 8,7 21,2 19,4 19,9 21,3 2 1 9 5 - 1016,7 10 60 0,0
18.09.2018 09:00:00 15,6 8,4 16,5 17,1 20,0 21,3 4 2 8 4 - 1016,9 10 60 0,0
18.09.2018 08:00:00 11,0 7,6 10,8 16,2 20,2 21,3 5 3 5 3 E 1016,7 50 28 0,0
18.09.2018 07:00:00 10,3 7,7 7,8 16,5 20,5 21,3 2 1 8 4 - 1016,2 10 0 0,0
18.09.2018 06:00:00 11,1 7,9 8,5 16,9 20,7 21,3 4 2 8 4 E 1016,3 10 0 0,0
18.09.2018 05:00:00 12,1 8,0 9,2 17,4 21,0 21,3 5 3 8 4 NE 1016,2 50 0 0,0
18.09.2018 04:00:00 14,4 8,4 12,2 17,7 21,3 21,3 4 2 9 5 ENE 1016,2 60 0 0,0
18.09.2018 03:00:00 13,2 8,0 10,3 18,1 21,6 21,3 5 3 8 4 NE 1016,5 60 0 0,0
18.09.2018 02:00:00 14,9 8,2 12,2 18,6 21,9 21,3 5 3 8 4 N 1016,7 10 0 0,0
18.09.2018 01:00:00 15,6 8,0 12,7 19,1 22,3 21,3 5 3 13 7 NE 1016,8 65 0 0,0
18.09.2018 00:00:00 14,6 8,3 11,6 19,8 22,7 21,3 5 3 9 5 NNE 1016,9 10 0 0,0
17.09.2018 23:00:00 15,6 8,5 12,1 20,6 23,1 21,3 5 3 8 4 NE 1017,1 70 0 0,0
17.09.2018 22:00:00 16,4 8,5 13,3 21,6 23,5 21,3 2 1 8 4 - 1017,4 10 0 0,0
17.09.2018 21:00:00 18,1 8,2 14,4 22,9 23,9 21,3 2 1 8 4 - 1017,1 10 0 0,0
17.09.2018 20:00:00 20,6 7,7 16,8 24,8 24,2 21,3 2 1 13 7 ESE 1017,0 75 0 0,0
17.09.2018 19:00:00 24,4 7,3 22,6 27,0 24,2 21,3 4 2 25 13 SSW 1016,9 10 35 0,0
17.09.2018 18:00:00 27,1 5,3 27,6 28,9 24,0 21,4 6 3 22 12 SSW 1017,0 70 54 0,0
17.09.2018 17:00:00 27,4 5,8 30,3 30,0 23,6 21,4 5 3 25 13 - 1017,6 10 60 0,0
17.09.2018 16:00:00 27,3 6,6 31,0 30,4 23,0 21,4 8 4 22 12 - 1018,1 10 60 0,0
17.09.2018 15:00:00 26,7 7,2 31,5 29,9 22,2 21,4 13 7 26 14 - 1018,9 10 60 0,0
17.09.2018 14:00:00 25,4 9,4 30,0 28,9 21,4 21,4 11 6 25 14 SW 1019,6 50 60 0,0
17.09.2018 13:00:00 24,2 9,6 28,9 26,9 20,6 21,4 9 5 16 9 SW 1020,2 10 60 0,0
17.09.2018 12:00:00 22,0 10,0 27,7 24,4 20,0 21,4 7 4 11 6 WSW 1020,9 10 60 0,0
17.09.2018 11:00:00 19,6 8,3 22,0 21,3 19,6 21,4 7 4 15 8 SW 1021,5 35 60 0,0
17.09.2018 10:00:00 17,3 6,9 19,6 18,6 19,4 21,4 2 1 9 5 - 1021,6 10 60 0,0
17.09.2018 09:00:00 13,9 6,1 15,9 16,3 19,5 21,4 2 1 5 3 - 1021,8 10 60 0,0
17.09.2018 08:00:00 8,8 6,0 8,7 15,2 19,8 21,4 4 2 5 3 SSE 1021,7 10 23 0,0
17.09.2018 07:00:00 7,7 5,7 5,6 15,5 20,1 21,4 4 2 8 4 - 1021,7 10 0 0,0
17.09.2018 06:00:00 8,3 5,9 6,1 16,0 20,4 21,4 4 2 8 4 E 1021,4 50 0 0,0
17.09.2018 05:00:00 9,3 6,5 7,1 16,5 20,7 21,4 4 2 8 4 ENE 1021,1 50 0 0,0
17.09.2018 04:00:00 9,8 6,4 8,3 17,0 21,1 21,4 4 2 8 4 NE 1021,0 50 0 0,0
17.09.2018 03:00:00 11,3 6,8 8,1 17,6 21,4 21,4 4 2 8 4 NE 1020,7 60 0 0,0
17.09.2018 02:00:00 13,1 6,9 10,7 18,2 21,7 21,4 8 4 9 5 N 1020,8 10 0 0,0
17.09.2018 01:00:00 14,9 7,0 12,4 18,8 22,1 21,4 7 4 9 5 NE 1020,7 60 0 0,0
17.09.2018 00:00:00 15,8 7,2 13,1 19,5 22,5 21,4 6 3 8 4 NE 1020,6 60 0 0,0
16.09.2018 23:00:00 15,6 7,1 12,2 20,3 22,9 21,4 6 3 11 6 NE 1020,9 60 0 0,0

tt = temperature
td = dewpoint
tt 5cm = temperature 5cm
tt -5cm = temperature -5cm
tt -20cm = temperature -20cm
tt -100cm = temperature -100cm
ff = wind speed
fx = gusts
dd = wind direction
ppp = reduced air pressure
vv = visibility
sd = sunshine duration
rr = precipitation

Next stations